Вернуться в каталог

DELTA 1 DEB

АктивенUNKNOWN
NORAD 13533·DEBRIS·🇺🇸 United States

Запущен Jul 29, 1976 с Vandenberg Space Force Base

Loading…

Ближайшие Пролёты (ближайшие 24 часа)

TLE

СвежийSource: Space-Track

Эпоха: Sep 14, 2026, 08:44 UTC

1 13533U 76077EF  26257.36443324  .00000348  00000-0  54308-2 0  9990
2 13533 101.8718 205.9122 0361293 125.8568  26.4159 11.74585362 45786

Отслеживайте DELTA 1 DEB в реальном времени с AllMySat

Download on the App Store